GW0720 Weather Reports


Display with metric or nautical units.
time (UTC)temp
F
wind
direction
speed
MPH
gust
MPH
rain 1hr
in
rain 24hr
in
rain mn
in
humidity
%
barometer
mb
20260905091602 70 0 0.0 1.0 0.00 0.14 0.00 96 1011.4
20260905090135 70 0 0.0 0.0 0.00 0.14 0.00 96 1011.4
20260905084613 70 0 0.0 0.0 0.00 0.14 0.00 96 1011.5
20260905083059 70 0 0.0 1.0 0.00 0.14 0.00 96 1011.6
20260905081557 70 42 0.0 0.0 0.00 0.14 0.00 96 1011.8
20260905080101 70 0 0.0 1.0 0.00 0.14 0.00 96 1011.9
20260905074551 70 0 0.0 1.0 0.00 0.14 0.00 96 1012.0
20260905073055 70 0 0.0 2.0 0.00 0.14 0.00 96 1012.0
20260905071602 70 0 0.0 0.0 0.00 0.14 0.00 96 1012.1
20260905070104 71 0 0.0 1.0 0.00 0.14 0.00 96 1012.3
20260905064552 70 0 0.0 0.0 0.00 0.14 0.00 96 1012.5
20260905063101 71 0 0.0 1.0 0.00 0.14 0.00 96 1012.5
20260905061559 71 0 0.0 1.0 0.00 0.14 0.00 96 1012.8
20260905060105 71 0 0.0 0.0 0.00 0.14 0.00 96 1013.1
20260905054559 71 0 0.0 1.0 0.00 0.14 0.00 95 1013.2
20260905053057 71 0 0.0 1.0 0.00 0.14 0.00 96 1013.5
20260905051558 71 0 0.0 2.0 0.00 0.14 0.00 96 1013.8
20260905050105 71 0 0.0 0.0 0.00 0.14 0.00 96 1014.0
20260905044558 71 0 0.0 1.0 0.00 0.14 0.00 96 1014.2
20260905043103 71 0 0.0 0.0 0.00 0.14 0.00 95 1014.4
20260905041600 72 0 0.0 0.0 0.00 0.14 0.00 95 1014.5
20260905040057 72 0 0.0 0.0 0.00 0.14 0.00 95 1014.6
20260905034609 72 0 0.0 0.0 0.00 0.14 0.14 95 1014.6
20260905033114 72 0 0.0 1.0 0.00 0.14 0.14 96 1014.6
20260905031603 72 0 0.0 1.0 0.00 0.14 0.14 95 1014.6
20260905024604 73 0 0.0 2.0 0.00 0.14 0.14 95 1014.5
20260905023059 73 0 0.0 0.0 0.00 0.14 0.14 95 1014.6
20260905021557 73 0 0.0 0.0 0.00 0.14 0.14 95 1014.7
20260905020103 73 0 0.0 0.0 0.00 0.14 0.14 95 1014.9
20260905014607 73 0 0.0 1.0 0.00 0.14 0.14 95 1014.7
20260905013117 73 67 1.0 2.0 0.00 0.14 0.14 95 1014.6
20260905011604 73 0 0.0 0.0 0.00 0.14 0.14 95 1014.3
20260905010106 74 0 0.0 2.0 0.00 0.14 0.14 95 1013.9
20260905004647 74 0 0.0 3.0 0.00 0.14 0.14 94 1013.7
20260905003057 74 0 0.0 0.0 0.00 0.14 0.14 95 1013.7
20260905001559 74 0 0.0 0.0 0.01 0.14 0.14 94 1012.9
20260905000107 74 0 0.0 2.0 0.02 0.14 0.14 94 1012.7
20260904234604 74 0 0.0 2.0 0.02 0.14 0.14 93 1012.5
20260904233059 74 0 0.0 3.0 0.02 0.14 0.14 93 1013.8
20260904231557 75 62 0.0 2.0 0.01 0.13 0.13 94 1015.3
20260904230057 75 0 0.0 1.0 0.08 0.12 0.12 93 1014.7
20260904224605 75 0 0.0 3.0 0.12 0.12 0.12 93 1014.6
20260904223103 75 0 0.0 1.0 0.12 0.12 0.12 92 1015.2
20260904221601 75 314 0.0 4.0 0.12 0.12 0.12 90 1015.3
20260904220100 78 234 0.0 11.0 0.04 0.04 0.04 84 1015.6
20260904214607 82 148 1.0 12.0 0.00 0.00 0.00 73 1014.5
20260904213100 86 350 6.0 24.0 0.00 0.00 0.00 70 1014.4
20260904211557 90 0 0.0 0.0 0.00 0.00 0.00 72 1013.3
20260904210100 90 0 0.0 0.0 0.00 0.00 0.00 70 1013.3
20260904204557 90 0 0.0 1.0 0.00 0.00 0.00 69 1013.2
20260904203057 90 0 0.0 0.0 0.00 0.00 0.00 73 1013.0
20260904201555 90 0 0.0 1.0 0.00 0.00 0.00 70 1012.8
20260904200120 91 0 0.0 1.0 0.00 0.00 0.00 66 1013.0
20260904194610 93 0 0.0 2.0 0.00 0.00 0.00 62 1013.4
20260904193105 94 0 0.0 3.0 0.00 0.00 0.00 61 1013.4
20260904191600 96 0 0.0 3.0 0.00 0.00 0.00 57 1013.7
20260904190106 97 0 0.0 3.0 0.00 0.00 0.00 54 1013.9
20260904184613 96 262 0.0 8.0 0.00 0.00 0.00 55 1014.3
20260904183104 96 0 1.0 4.0 0.00 0.00 0.00 54 1014.5
20260904181613 97 233 0.0 5.0 0.00 0.00 0.00 54 1014.7
20260904180144 97 0 0.0 4.0 0.00 0.00 0.00 55 1014.9
20260904174603 96 0 0.0 2.0 0.00 0.00 0.00 58 1015.3
20260904173054 96 0 1.0 5.0 0.00 0.00 0.00 56 1015.4
20260904171620 94 250 1.0 5.0 0.00 0.00 0.00 58 1015.4
20260904170058 94 219 1.0 5.0 0.00 0.00 0.00 60 1015.3
20260904164614 93 264 0.0 4.0 0.00 0.00 0.00 59 1015.4
20260904163055 93 244 0.0 3.0 0.00 0.00 0.00 61 1015.7
20260904161605 93 0 0.0 5.0 0.00 0.00 0.00 60 1015.7
20260904160100 94 233 0.0 6.0 0.00 0.00 0.00 62 1015.8
20260904154600 94 214 0.0 3.0 0.00 0.00 0.00 62 1015.8
20260904153109 93 0 0.0 4.0 0.00 0.00 0.00 63 1015.8
20260904151600 93 155 0.0 4.0 0.00 0.00 0.00 64 1015.7
20260904150106 92 0 0.0 4.0 0.00 0.00 0.00 66 1015.6
20260904144556 91 0 0.0 3.0 0.00 0.00 0.00 68 1015.7
20260904143100 90 345 1.0 3.0 0.00 0.00 0.00 71 1015.6
20260904141558 88 318 0.0 2.0 0.00 0.00 0.00 74 1015.6
20260904140057 86 0 0.0 4.0 0.00 0.00 0.00 78 1015.6
20260904134559 84 0 0.0 3.0 0.00 0.00 0.00 79 1015.4
20260904133100 83 0 0.0 2.0 0.00 0.00 0.00 82 1015.1
20260904131607 81 0 0.0 2.0 0.00 0.00 0.00 84 1015.1
20260904130100 80 298 0.0 1.0 0.00 0.00 0.00 86 1015.3
20260904124604 79 0 0.0 3.0 0.00 0.00 0.00 88 1015.1
20260904123059 77 0 0.0 3.0 0.00 0.00 0.00 91 1015.3
20260904121558 75 0 0.0 1.0 0.00 0.00 0.00 95 1015.4
20260904120101 75 0 0.0 0.0 0.00 0.00 0.00 96 1015.3
20260904114606 74 0 0.0 0.0 0.00 0.00 0.00 95 1015.2
20260904113106 74 0 0.0 0.0 0.00 0.00 0.00 94 1015.2
20260904111603 74 0 0.0 0.0 0.00 0.00 0.00 94 1015.2
20260904110104 73 0 0.0 0.0 0.00 0.00 0.00 94 1015.2
20260904104613 74 0 0.0 0.0 0.00 0.00 0.00 93 1015.1
20260904103100 74 0 0.0 0.0 0.00 0.00 0.00 93 1015.1
20260904101557 74 0 0.0 0.0 0.00 0.00 0.00 93 1015.1
20260904100116 74 0 0.0 0.0 0.00 0.00 0.00 93 1015.1
20260904094615 74 0 0.0 0.0 0.00 0.00 0.00 92 1015.0
20260904093106 75 0 0.0 0.0 0.00 0.00 0.00 92 1015.2